www.pogodaiklimat.ru

Погода и климат >> Архив погоды >> Аргентина >> Лабоулайе


ПОГОДА в Лабоулайе

  • Прогноз погоды в Лабоулайе
  • Монитор погоды в Лабоулайе

АРХИВ ПОГОДЫ в Лабоулайе

Время (UTC), дата Ветер
(напр.,м/с)
 
Видим.   Явления Облачность Т
(С)
Тd
(С)
f
(%)
Тe
(С)
Тes
(С)
Комфортность P
(гПа)
Po
(гПа)
Тmin
(С)
Tmax
(С)
R
(мм)
R24
(мм)
S
(см)
18 16.08 штиль 0 12 км 6/0
[Cs]
+22.3 +1.7 26 +22 +31 комфорт 1010.0 993.6
21 16.08 штиль 0 10 км 6/0
[Cs]
+19.5 +1.4 30 +20 +20 1009.4 992.9
00 17.08 штиль 0 10 км ясно +10.9 +1.8 53 +11 +11 1010.0 993.3 +3.5 +22.3
03 17.08 штиль 0 10 км ясно +8.3 +2.4 66 +8 +8 1010.2 993.8
06 17.08 Ю 2 10 км ясно +6.7 +3.7 81 +4 +4 1008.4 992.2
09 17.08 Ю 2 10 км 6/6 900 м
[Sc]
+10.1 +5.1 71 +9 +9 1008.6 992.4
12 17.08 Ю 1 10 км 4/1 900 м
[Sc Ac As]
+7.0 +1.9 70 +6 +7 1011.7 995.2 +6.5 +10.9
15 17.08 Ю 6 10 км ясно +17.6 +3.3 38 +17 +20 1012.6 996.2
18 17.08 Ю 8 10 км ясно +20.5 +0.8 27 +20 +21 1012.0 995.7
21 17.08 Ю 2 10 км 5/0
[Ci]
+17.9 +1.6 33 +18 +19 1013.5 997.2
00 18.08 штиль 0 10 км 3/0
[Cs]
+10.3 -0.4 47 +10 +10 1015.9 999.2 +7.0 +20.8
03 18.08 штиль 0 10 км 4/0
[Cs]
+9.9 +3.3 63 +9 +9 1019.4 1003.0
06 18.08 штиль 0 10 км 5/0
[Cs]
+7.1 -0.3 59 +7 +7 1021.7 1005.3
09 18.08 Ю 4 10 км 4/0
[Cs]
+5.3 +2.1 80 +1 +1 1022.5 1005.8
12 18.08 ЮВ 6 10 км 9/0
[Ac As Cs]
+6.1 +3.5 83 +1 +2 1026.7 1009.8 +3.6 +11.1
15 18.08 ЮВ 11 10 км 4/1 450 м
[Sc Ci]
+11.5 +3.7 59 +8 +8 1028.6 1011.8
18 18.08 ЮВ 8 10 км 3/0
[Ci]
+14.3 -0.8 35 +12 +13 1027.2 1010.5
21 18.08 ЮВ 6 10 км 9/0
[As trans Cs]
+11.9 -2.8 36 +10 +10 1027.7 1010.8
00 19.08 ЮВ 1 10 км 9/0
[As trans Cs]
+6.9 -0.6 59 +6 +6 1029.8 1012.8 +6.1 +14.6
03 19.08 штиль 0 10 км 6/0
[Cs]
+4.7 -0.3 70 +4 +4 1030.7 1013.8
06 19.08 Ю 4 10 км 6/0
[Ac As Cs]
+4.9 +1.1 76 +1 +1 1030.7 1013.8
09 19.08 В 2 10 км 9/0
[Ac As]
+4.8 +1.3 78 +2 +2 1030.5 1013.6
12 19.08 В 4 10 км 9/1 900 м
[Sc Ac As Cs]
+5.0 +1.2 76 +1 +1 1030.3 1013.2 +3.8 +6.9
15 19.08 В 8 10 км 9/6 900 м
[Sc Ac As]
+7.5 -0.1 59 +3 +3 1028.9 1011.8
18 19.08 СВ 8 10 км 9/4 900 м
[Sc Ac trans]
+12.1 +0.1 44 +9 +10 1026.7 1009.8
21 19.08 В 3 10 км 9/5 900 м
[Sc Ac trans]
+11.3 +0.8 48 +10 +10 1026.4 1009.4
00 20.08 В 4 10 км 6/0
[Ac As Cs]
+7.8 -0.7 55 +5 +5 1028.2 1011.2 +5.0 +12.7
03 20.08 СВ 6 10 км 10/0
[Ac As]
+5.9 -2.0 57 +2 +2 1029.4 1012.4
06 20.08 СВ 5 10 км 10/0
[Ac As]
+5.5 -1.8 59 +1 +1 1029.3 1012.4
09 20.08 СВ 3 10 км 10/0
[Ac As]
+5.1 -1.7 61 +2 +2 1028.7 1011.7
12 20.08 СВ 2 10 км 9/0
[Ac As]
+5.1 -1.7 61 +3 +3 1030.0 1012.9 +4.8 +7.8
15 20.08 СВ 3 10 км 8/0
[Ac As Cs]
+11.7 +2.6 54 +10 +15 1030.3 1013.3
18 20.08 С 4 10 км 3/0
[Cs]
+15.0 +1.4 40 +14 +19 1028.4 1011.6
21 20.08 СВ 5 10 км ясно +13.9 -1.5 34 +12 +13 1027.5 1010.6
00 21.08 штиль 0 10 км ясно +5.9 -0.7 63 +5 +5 1028.7 1011.6 +5.1 +15.6
03 21.08 В 3 10 км ясно +4.1 -0.1 74 +1 +1 1029.2 1012.2
06 21.08 штиль 0 10 км ясно +2.8 -0.2 81 +2 +2 1028.1 1011.2
09 21.08 В 3 10 км ясно +3.3 +0.7 83 -1 -1 1026.1 1009.2
12 21.08 В 3 10 км дымка 5/0
[Ac As Ci]
+4.3 +2.6 89 +1 +2 1027.4 1010.4 +2.2 +5.9
15 21.08 СВ 8 10 км 4/0
[Ci]
+13.2 +2.9 50 +11 +12 1026.3 1009.4
18 21.08 СВ 8 10 км ясно +16.9 +1.5 35 +16 +17 1022.2 1005.4
21 21.08 СВ 6 10 км ясно +16.5 -1.3 30 +15 +16 1021.5 1004.8
00 22.08 В 1 10 км ясно +9.5 +1.0 55 +9 +9 1023.2 1006.2 +4.3 +18.3
03 22.08 В 1 10 км 4/0
[Cs]
+8.5 +3.9 73 +8 +8 1025.0 1008.2
06 22.08 штиль 0 10 км 6/0
[Ac As Cs]
+7.1 +3.3 77 +6 +6 1025.8 1009.2
09 22.08 штиль 0 10 км 6/0
[Ac As Cs]
+6.1 +3.0 80 +5 +5 1026.3 1009.6
12 22.08 штиль 0 8000 м дымка ясно +6.3 +3.7 83 +5 +7 1029.1 1012.1 +4.2 +9.5
15 22.08 штиль 0 15 км ясно +15.9 +5.8 51 +16 +29 опасность
простуды
1029.1 1012.4
18 22.08 штиль 0 15 км ясно +20.1 +3.7 34 +20 +32 1027.2 1010.6
21 22.08 штиль 0 15 км 4/0
[Ci]
+19.5 +3.9 36 +20 +20 1026.2 1009.6
00 23.08 штиль 0 10 км ясно +11.5 +3.7 59 +11 +11 1027.1 1010.2 +6.3 +20.7
03 23.08 штиль 0 10 км ясно +7.6 +3.4 75 +7 +7 1027.2 1010.5
06 23.08 штиль 0 10 км ясно +5.0 +2.6 84 +4 +4 1026.5 1009.8
09 23.08 штиль 0 10 км ясно +5.8 +3.9 88 +5 +5 1024.6 1008.0
12 23.08 СВ 2 8000 м дымка 3/0
[Ci]
+7.2 +4.2 81 +5 +7 1024.7 1007.8 +4.0 +11.5
15 23.08 С 12 10 км 8/0
[Ac As Cs]
+18.1 +5.2 43 +17 +17 1023.4 1006.9

 

Местоположение метеостанции Лабоулайе (Аргентина): широта -34.13 долгота -63.36 высота над уровнем моря 137 м.

В архиве по умолчанию представлена погода в Лабоулайе за последнюю неделю. Архивные данные за месяц целиком и за предыдущие месяцы, начиная с января 2011 года, Вы можете получить, выбрав интересующий диапазон дат из раскрывающегося списка и нажав кнопку "Ввод!".


*Определитесь, кто Вы:
робот инопланетянин человек

Внимание! Время в таблицах - всемирное. Для получения местного времени необходимо прибавить поправку, которая равна -3 ч.

Смотрите также архив погоды в соседних городах и на ближайших метеорологических станциях:

Погода в Рио-Куарто (Аргентина) (143 км)
Погода в Хенераль Пико (Аргентина) (178 км)
Погода в Вилья Рейнольдс (Аргентина) (192 км)
Погода в Маркос Хуарес (Аргентина) (195 км)
Погода в Хунине (Аргентина) (230 км)
Погода в Росарио (Аргентина) (275 км)
Погода в Пиларе (Аргентина) (279 км)
Погода в Санкт-Розе (Аргентина) (282 км)
Погода в Сан-Луисе (Аргентина) (293 км)
Погода в Вилла Долорес (Аргентина) (293 км)

Пояснения к столбцам:

Ветер - указаны скорость ветра в м/с - средняя за 10 мин, порывы в срок и между сроками (в фигурных скобках) и направление, откуда дует ветер: С - северный, СВ - северо-восточный, В - восточный, ЮВ - юго-восточный, Ю - южный, ЮЗ - юго-западный, З - западный, СЗ - северо-западный.
Видимость - горизонтальная дальность видимости в метрах или километрах. При видимости от 1 до 10 км при отсутствии осадков обычно наблюдается дымка, при ухудшении видимости до 1 км и менее - туман. В сухую погоду видимость может ухудшаться дымом, пылью или мглою.
Явления - указаны атмосферные явления, наблюдавшиеся в срок или в последний час перед сроком; фигурными скобками обозначены явления, наблюдавшиеся между сроками (за 1-3 часа до срока); квадратными скобками обозначены град или гололедные отложения с указанием их диаметра в мм.
Облачность - указаны через наклонную черту общая и нижняя облачность в баллах и высота нижней границы облаков в метрах; квадратными скобками обозначены формы облаков: Ci - перистые, Cs - перисто-слоистые, Cc - перисто-кучевые, Ac - высококучевые, As - высокослоистые, Sc - слоисто-кучевые, Ns - слоисто-дождевые, Cu - кучевые, Cb - кучево-дождевые. Подробнее классификацию облаков см. в Атласе облаков (PDF).
T - Температура воздуха - температура, измеренная на высоте 2 м над землей.
Td - Температура точки росы - температура, при понижении до которой содержащийся в воздухе водяной пар достигнет насыщения.
f - Относительная влажность воздуха - влажноcть воздуха, измеренная на высоте 2 м над землей.
Te - Эффективная температура - температура, которую ощущает одетый по сезону человек в тени. Характеристика душности погоды. При расчете учитывается влияние влажности воздуха и скорости ветра на теплоощущения человека.
Tes - Эффективная температура на солнце - температура, которую ощущает человек, с поправкой на солнечный нагрев. Характеристика знойности погоды. Зависит от высоты солнца над горизонтом, облачности и скорости ветра. Ночью, в пасмурную погоду, а также при ветре 12 м/с и более поправка равна нулю.
P - Атмосферное давление - приведенное к уровню моря атмосферное давление.
Po - Атмосферное давление - измеренное на уровне метеостанции атмосферное давление.
Tmin - Минимальная температура - минимум температуры воздуха на высоте 2 м над землей.
Tmax - Максимальная температура - максимум температуры воздуха на высоте 2 м над землей.
R - Количество осадков - Количество выпавших осадков за период времени, мм. При наведении курсора мыши на число - период времени, за который выпало указанное количество осадков.
R24 - Количество осадков - Количество выпавших осадков за 24 часа, мм.
S - Снежный покров - Высота снежного покрова, см. При наведении курсора мыши на число - состояние снежного покрова и степень покрытия местности в баллах.